[[{"header":{"parameterUnit":"m.s-1","parameterCategory":1,"la1":30.2991,"la2":30.254,"lo1":-89.0895,"lo2":-89.0444,"dy":0.0017,"dx":0.0017,"nx":28,"ny":28,"refTime":"2024-06-09T03:00:00:Z","depth":0,"parameterNumber":2,"parameterNumberName":"U-component_of_WINDS"},"data":[0,0,0,0,0,0,0,0,0,0,0,0,0,0,0,0,0,0,0,0,0,0,0,0,0,0,0,0,0,0,0,0,0,0,0,0,0,0,0,0,0,0,0,0,0,0,0,0,0,0,0,0,0,0,0,0,0,0,4.2253,4.2253,0,4.2319,4.232,4.2321,4.2262,4.226,4.2258,4.2255,4.2328,4.2332,4.2336,0,0,0,0,0,0,0,0,0,0,0,0,0,4.2081,4.2084,4.2253,4.2253,4.2254,4.2319,4.232,4.2321,4.2263,4.226,4.2257,4.2254,4.2327,4.2332,4.2337,0,0,0,0,0,0,0,0,0,0,0,0,0,4.2152,4.2085,4.2252,4.2233,4.2232,4.2319,4.232,4.2321,4.2264,4.226,4.2256,4.2253,4.2325,4.2331,4.2337,4.2449,0,0,4.2357,4.2359,0,0,0,0,0,0,0,0,4.2148,4.2159,4.2235,4.2235,4.2233,4.2279,4.2286,4.2364,4.2264,4.2252,4.2255,4.2251,4.2315,4.2322,4.2342,4.2452,4.2455,4.2357,4.2361,4.2364,4.2365,0,0,0,0,0,0,0,4.2144,4.2156,4.2279,4.2236,4.2235,4.2223,4.2229,4.2301,4.2303,4.2253,4.2248,4.2257,4.2314,4.2337,4.2344,4.2456,4.2357,4.2363,4.2366,4.2369,4.2663,4.2667,0,0,0,0,0,0,4.214,4.2152,4.2277,4.2281,4.2181,4.2229,4.2236,4.2268,4.2302,4.2304,4.226,4.2254,4.2328,4.2336,4.2346,4.248,4.2364,4.237,4.2373,4.2659,4.2664,4.2668,0,0,0,0,0,0,4.2136,4.2152,4.2274,4.2215,4.223,4.2236,4.2272,4.2271,4.2294,4.2307,4.2308,4.2282,4.2325,4.2337,4.2424,4.2481,4.2372,4.2378,4.2654,4.2661,4.2666,4.2747,0,0,0,0,0,0,4.2132,4.2151,4.2191,4.2217,4.2233,4.2349,4.2276,4.2275,4.2304,4.2297,4.2329,4.233,4.2323,4.2415,4.243,4.2488,4.2383,4.2649,4.2657,4.2664,4.2739,4.2755,4.2769,0,0,0,0,0,4.2126,4.2212,4.2194,4.2209,4.2284,4.2353,4.2362,4.2351,4.2309,4.2351,4.236,4.2329,4.2473,4.2424,4.2441,4.2502,4.2645,4.2655,4.2664,4.2733,4.2752,4.2768,0,0,0,0,0,0,4.2194,4.2215,4.2195,4.2291,4.2321,4.2342,4.2395,4.2371,4.2414,4.2406,4.2391,4.2399,4.2491,4.2505,4.245,4.2612,4.2553,4.2566,4.2599,4.2618,4.2632,4.2627,4.2388,0,0,0,0,0,4.222,4.2272,4.2288,4.2372,4.2388,4.2389,4.2418,4.2407,4.2438,4.245,4.2465,4.2498,4.255,4.2585,4.2633,4.2741,4.2749,4.2792,4.2806,4.2818,4.283,4.289,4.291,4.2698,4.2698,4.2698,0,0,4.2275,4.2293,4.2327,4.2386,4.2408,4.2464,4.24,4.2462,4.2504,4.246,4.2542,4.2555,4.259,4.2689,4.2733,4.2703,4.289,4.283,4.284,4.2844,4.2901,4.2921,4.2939,4.2704,4.2703,4.2702,0,0,4.2403,4.2421,4.2494,4.2517,4.255,4.2551,4.2568,4.2595,4.2601,4.2683,4.2652,4.2704,4.2793,4.282,4.2846,4.2987,4.2961,4.3004,4.3081,4.314,4.3156,4.3171,4.3223,4.3242,4.3015,4.3016,4.3016,0,4.2467,4.2549,4.2535,4.2599,4.2627,4.259,4.2664,4.2688,4.2736,4.2757,4.2723,4.2837,4.2858,4.2962,4.2997,4.3019,4.304,4.3,4.3155,4.317,4.3183,4.3233,4.3252,4.3021,4.302,4.3019,4.3019,0,4.2627,4.2685,4.274,4.2786,4.2821,4.2891,4.2888,4.2926,4.2912,4.2918,4.3004,4.3028,4.3081,4.3106,4.3093,4.321,4.3191,4.3156,4.3096,4.3209,4.3255,4.3273,4.3028,4.3026,4.3024,4.3023,0,0,4.2799,4.2838,4.2858,4.288,4.2915,4.296,4.3029,4.3081,4.3114,4.3149,4.3208,4.3286,4.3255,4.3284,4.3275,4.3327,4.344,4.3286,4.3287,4.3315,4.3571,4.3597,4.3619,4.3423,4.3426,4.3429,4.3569,0,4.2929,4.3047,4.3038,4.315,4.3205,4.3171,4.3232,4.3261,4.3268,4.3317,4.3326,4.3382,4.3336,4.3354,4.3403,4.3415,4.3491,4.3405,4.3479,4.3482,4.3471,4.3643,4.367,4.38,4.3587,4.359,4.3592,0,4.3097,4.3137,4.3255,4.3284,4.3306,4.3361,4.3408,4.3455,4.3489,4.3491,4.3524,4.3507,4.3579,4.3518,4.3619,4.356,4.3591,4.3601,4.3606,4.3613,4.3543,4.3655,4.3841,4.3861,4.362,4.3618,4.3616,0,4.3211,4.3296,4.3377,4.3397,4.3432,4.3471,4.3488,4.3518,4.3551,4.3593,4.3615,4.3666,4.3694,4.3735,4.3733,4.3688,4.3836,4.3774,4.3841,4.3842,4.3874,4.3872,4.4068,4.3893,4.3893,4.3892,4.3892,0,4.3358,4.3432,4.3429,4.348,4.3563,4.3552,4.3635,4.3647,4.3675,4.3729,4.3704,4.3755,4.3749,4.3802,4.3802,4.3886,4.3899,4.3904,4.3903,4.3906,4.3906,4.3926,4.3917,4.3897,4.3896,4.3895,4.3894,0,4.3499,4.3501,4.3588,4.3614,4.3623,4.3683,4.3706,4.3756,4.3761,4.383,4.3846,4.3856,4.3917,4.3919,4.399,4.399,4.4093,4.4082,4.4081,4.4079,4.4147,4.414,4.4363,4.4392,4.4198,4.4199,4.4201,0,4.3593,4.3649,4.3682,4.3715,4.3734,4.3789,4.3822,4.3815,4.3851,4.3895,4.394,4.3998,4.4044,4.4144,4.4159,4.4213,4.4203,4.4278,4.4212,4.4214,4.4206,4.4202,4.4209,4.4291,4.4293,4.4295,4.4296,0,4.3759,4.3757,4.3805,4.3854,4.3895,4.3933,4.3969,4.3999,4.3996,4.4038,4.41,4.4136,4.4208,4.4267,4.4321,4.434,4.4319,4.4317,4.4336,4.434,4.4337,4.434,4.4117,4.4312,4.431,4.4309,4.4308,4.4308,4.388,4.3929,4.396,4.4015,4.4041,4.4076,4.4123,4.4136,4.4186,4.4243,4.4237,4.4306,4.4341,4.441,4.4435,4.449,4.4465,4.4491,4.4498,4.4505,4.4512,4.4328,4.45,4.4499,4.4499,4.4499,4.4498,0,4.4045,4.4064,4.4115,4.4165,4.421,4.4185,4.4224,4.4263,4.4323,4.4357,4.4403,4.4476,4.4534,4.4554,4.4611,4.4651,4.4643,4.4667,4.4664,4.4669,4.4531,4.451,4.4672,4.4672,4.4672,4.4672,4.4672,4.4672,4.4136,4.4218,4.4221,4.4317,4.4335,4.4402,4.4426,4.4459,4.4486,4.4567,4.4615,4.4627,4.4657,4.4716,4.4769,4.4773,4.4796,4.4824,4.4824,4.4696,4.4678,4.4661,4.4641,4.4828,4.4829,4.4957,4.4958,4.4959]},{"header":{"parameterUnit":"m.s-1","parameterCategory":1,"la1":30.2991,"la2":30.254,"lo1":-89.0895,"lo2":-89.0444,"dy":0.0017,"dx":0.0017,"nx":28,"ny":28,"refTime":"2024-06-09T03:00:00:Z","depth":0,"parameterNumber":3,"parameterNumberName":"V-component_of_WINDS"},"data":[0,0,0,0,0,0,0,0,0,0,0,0,0,0,0,0,0,0,0,0,0,0,0,0,0,0,0,0,0,0,0,0,0,0,0,0,0,0,0,0,0,0,0,0,0,0,0,0,0,0,0,0,0,0,0,0,0,0,0.1173,0.1173,0,0.1179,0.1179,0.118,0.1164,0.1163,0.1163,0.1163,0.1171,0.1171,0.1172,0,0,0,0,0,0,0,0,0,0,0,0,0,0.1146,0.1147,0.1173,0.1173,0.1173,0.1179,0.1179,0.118,0.1164,0.1163,0.1163,0.1162,0.117,0.1171,0.1172,0,0,0,0,0,0,0,0,0,0,0,0,0,0.1156,0.1147,0.1173,0.1166,0.1165,0.1179,0.1179,0.118,0.1164,0.1163,0.1163,0.1162,0.117,0.1171,0.1172,0.1193,0,0,0.1175,0.1176,0,0,0,0,0,0,0,0,0.1155,0.1157,0.1167,0.1166,0.1166,0.117,0.1173,0.1184,0.1164,0.1165,0.1162,0.1162,0.1171,0.1172,0.1175,0.1194,0.1194,0.1175,0.1176,0.1176,0.1177,0,0,0,0,0,0,0,0.1155,0.1156,0.1175,0.1167,0.1166,0.1162,0.1163,0.1175,0.1172,0.1165,0.1163,0.1164,0.1171,0.1174,0.1175,0.1194,0.1175,0.1176,0.1177,0.1177,0.123,0.1231,0,0,0,0,0,0,0.1155,0.1156,0.1175,0.1175,0.1159,0.1163,0.1164,0.1169,0.1172,0.1171,0.1165,0.1164,0.1173,0.1174,0.1175,0.12,0.1176,0.1177,0.1178,0.1229,0.123,0.1231,0,0,0,0,0,0,0.1154,0.1157,0.1175,0.1165,0.1167,0.1165,0.1171,0.117,0.1173,0.1172,0.1172,0.1169,0.1172,0.1174,0.1189,0.12,0.1178,0.1179,0.1228,0.123,0.1231,0.125,0,0,0,0,0,0,0.1154,0.1157,0.1165,0.1166,0.1168,0.1188,0.1172,0.1171,0.1175,0.1173,0.1176,0.1175,0.1172,0.1187,0.119,0.1201,0.118,0.1227,0.1229,0.123,0.1249,0.1252,0.1255,0,0,0,0,0,0.1153,0.117,0.1165,0.1168,0.1178,0.1189,0.119,0.1185,0.1176,0.1184,0.1183,0.1175,0.1198,0.1189,0.1192,0.1204,0.1227,0.1228,0.123,0.1247,0.1251,0.1255,0,0,0,0,0,0,0.1172,0.1171,0.1165,0.1183,0.1186,0.1186,0.1197,0.119,0.1196,0.1194,0.1188,0.1188,0.1204,0.1205,0.1195,0.1224,0.1211,0.1213,0.1223,0.1227,0.123,0.123,0.118,0,0,0,0,0,0.1178,0.1187,0.1185,0.1202,0.1203,0.12,0.1204,0.12,0.1203,0.1204,0.1204,0.1208,0.1216,0.1221,0.1228,0.1248,0.1248,0.1257,0.1261,0.1263,0.1266,0.1276,0.128,0.1237,0.1237,0.1237,0,0,0.1191,0.1192,0.1198,0.1205,0.1207,0.1216,0.1201,0.1212,0.1218,0.1206,0.122,0.122,0.1223,0.1241,0.1248,0.1242,0.1277,0.1265,0.1267,0.1269,0.1278,0.1282,0.1286,0.1238,0.1238,0.1238,0,0,0.122,0.1221,0.1235,0.1237,0.1239,0.1236,0.1239,0.124,0.124,0.1253,0.1244,0.1252,0.1266,0.1268,0.1271,0.1299,0.1293,0.1302,0.1319,0.1329,0.1332,0.1335,0.1345,0.1349,0.1304,0.1304,0.1304,0,0.1237,0.125,0.1243,0.1254,0.1257,0.1245,0.1259,0.1261,0.1266,0.1269,0.1261,0.1278,0.1279,0.1297,0.1303,0.1306,0.131,0.1302,0.1332,0.1335,0.1337,0.1347,0.1351,0.1305,0.1305,0.1305,0.1305,0,0.127,0.1279,0.129,0.1294,0.1299,0.1311,0.1306,0.1311,0.1306,0.1304,0.1317,0.1318,0.1325,0.1329,0.1324,0.1345,0.1341,0.1333,0.132,0.1343,0.1352,0.1355,0.1307,0.1307,0.1306,0.1306,0,0,0.1313,0.1312,0.1316,0.1317,0.1318,0.1325,0.1337,0.1343,0.1347,0.1351,0.136,0.1371,0.1363,0.1367,0.1362,0.137,0.1392,0.1361,0.1361,0.1367,0.1416,0.1423,0.1427,0.1387,0.1388,0.1388,0.1416,0,0.1341,0.1361,0.1354,0.1373,0.1382,0.137,0.1379,0.1381,0.1379,0.1386,0.1383,0.1391,0.138,0.1382,0.139,0.1388,0.1402,0.1386,0.1396,0.1397,0.1397,0.1432,0.1439,0.1465,0.1419,0.142,0.142,0,0.1378,0.1382,0.1402,0.1401,0.1404,0.1413,0.1417,0.1424,0.1425,0.1423,0.1426,0.1419,0.143,0.1416,0.1431,0.142,0.1423,0.1423,0.1424,0.1425,0.141,0.1434,0.1473,0.1477,0.1425,0.1425,0.1425,0,0.1407,0.1418,0.1431,0.1432,0.1431,0.1438,0.1437,0.1438,0.1442,0.1445,0.1448,0.1453,0.1456,0.146,0.1455,0.1445,0.147,0.1456,0.1469,0.1469,0.1476,0.1476,0.1516,0.1477,0.1477,0.1477,0.1477,0,0.144,0.1453,0.1444,0.1452,0.1466,0.1457,0.1472,0.147,0.147,0.1478,0.1468,0.1475,0.1467,0.1474,0.147,0.1482,0.1484,0.1482,0.1481,0.1484,0.1484,0.1487,0.1485,0.1478,0.1478,0.1478,0.1477,0,0.1476,0.147,0.1484,0.1481,0.148,0.1491,0.1488,0.1496,0.1492,0.1502,0.1504,0.1499,0.1506,0.1501,0.1508,0.1505,0.1522,0.1518,0.1521,0.1521,0.1534,0.1533,0.1578,0.1583,0.1541,0.1541,0.1541,0,0.1498,0.1507,0.1505,0.1509,0.1509,0.1516,0.152,0.1511,0.1515,0.1517,0.1524,0.153,0.1535,0.1547,0.1544,0.1549,0.1546,0.1561,0.1547,0.1548,0.1546,0.1546,0.1547,0.1564,0.1565,0.1565,0.1565,0,0.1538,0.1534,0.1539,0.1543,0.1547,0.1549,0.1551,0.1555,0.1547,0.1552,0.1559,0.1562,0.1569,0.1575,0.1579,0.1579,0.1571,0.157,0.1573,0.1576,0.1578,0.1577,0.153,0.1569,0.1569,0.1568,0.1568,0.1568,0.1567,0.1575,0.1574,0.158,0.158,0.1582,0.1588,0.1585,0.1591,0.1595,0.159,0.1598,0.1598,0.1603,0.1603,0.161,0.1603,0.1608,0.161,0.1611,0.1613,0.1576,0.161,0.161,0.161,0.161,0.161,0,0.1606,0.1605,0.161,0.1612,0.1617,0.1608,0.1609,0.1614,0.1621,0.1621,0.1626,0.1633,0.1639,0.1636,0.164,0.1646,0.1642,0.1648,0.1648,0.1648,0.1618,0.1615,0.165,0.165,0.165,0.165,0.165,0.165,0.1627,0.1639,0.1635,0.1647,0.1646,0.1653,0.1655,0.1656,0.1656,0.1665,0.1669,0.1667,0.1666,0.167,0.1675,0.1674,0.1676,0.1683,0.1681,0.1654,0.165,0.1646,0.1643,0.1684,0.1684,0.1709,0.171,0.171]}]]